Time,TemperatureF,DewpointF,PressureIn,WindDirection,WindDirectionDegrees,WindSpeedMPH,WindSpeedGustMPH,Humidity,HourlyPrecipIn,Conditions,Clouds,dailyrainin,SoftwareType,DateUTC
2013-04-22 00:01:00,40.7,24.9,30.61,North,3,0.0,0.0,53,0.00,CLR,,0.00,WeatherDisplay:10.37,2013-04-22 04:01:00,
2013-04-22 00:02:00,40.8,25.5,30.61,North,3,0.0,0.0,54,0.00,CLR,,0.00,WeatherDisplay:10.37,2013-04-22 04:02:00,
2013-04-22 00:03:00,40.8,25.5,30.61,North,3,0.0,0.0,54,0.00,CLR,,0.00,WeatherDisplay:10.37,2013-04-22 04:03:00,
2013-04-22 00:04:00,40.9,26.0,30.61,North,3,0.0,0.0,55,0.00,CLR,,0.00,WeatherDisplay:10.37,2013-04-22 04:04:00,
2013-04-22 00:06:00,40.8,25.5,30.61,North,3,0.0,0.0,54,0.00,CLR,,0.00,WeatherDisplay:10.37,2013-04-22 04:06:00,
2013-04-22 00:11:00,40.7,25.8,30.62,North,3,0.0,0.0,55,0.00,CLR,,0.00,WeatherDisplay:10.37,2013-04-22 04:11:00,
2013-04-22 00:16:00,40.3,27.1,30.62,SSW,195,0.0,0.0,59,0.00,CLR,,0.00,WeatherDisplay:10.37,2013-04-22 04:16:00,
2013-04-22 00:21:00,40.2,26.2,30.62,SSW,195,0.0,0.0,57,0.00,CLR,,0.00,WeatherDisplay:10.37,2013-04-22 04:21:00,
2013-04-22 00:26:00,40.1,26.9,30.62,SSW,195,0.0,0.0,59,0.00,CLR,,0.00,WeatherDisplay:10.37,2013-04-22 04:26:00,
2013-04-22 00:31:00,40.1,26.5,30.62,SSW,195,0.0,0.0,58,0.00,CLR,,0.00,WeatherDisplay:10.37,2013-04-22 04:31:00,
2013-04-22 00:36:00,40.2,27.9,30.62,SSW,195,0.0,0.0,61,0.00,CLR,,0.00,WeatherDisplay:10.37,2013-04-22 04:36:00,
2013-04-22 00:41:00,40.6,28.6,30.63,ESE,121,1.2,0.0,62,0.00,CLR,,0.00,WeatherDisplay:10.37,2013-04-22 04:41:00,
2013-04-22 00:46:00,40.9,29.3,30.62,ESE,121,0.0,0.0,63,0.00,CLR,,0.00,WeatherDisplay:10.37,2013-04-22 04:46:00,
2013-04-22 00:51:00,41.0,30.2,30.63,South,182,0.0,0.0,65,0.00,CLR,,0.00,WeatherDisplay:10.37,2013-04-22 04:51:00,
2013-04-22 00:56:00,40.9,30.4,30.63,SSW,209,0.0,0.0,66,0.00,CLR,,0.00,WeatherDisplay:10.37,2013-04-22 04:56:00,
2013-04-22 01:01:00,40.9,30.8,30.62,SSW,209,0.0,0.0,67,0.00,CLR,,0.00,WeatherDisplay:10.37,2013-04-22 05:01:00,
2013-04-22 01:06:00,41.2,31.1,30.62,SSW,209,0.0,0.0,67,0.00,CLR,,0.00,WeatherDisplay:10.37,2013-04-22 05:06:00,
2013-04-22 01:11:00,41.0,31.6,30.63,SSW,209,0.0,0.0,69,0.00,CLR,,0.00,WeatherDisplay:10.37,2013-04-22 05:11:00,
2013-04-22 01:16:00,41.0,32.0,30.63,SSW,209,0.0,0.0,70,0.00,CLR,,0.00,WeatherDisplay:10.37,2013-04-22 05:16:00,
2013-04-22 01:21:00,40.9,31.5,30.62,SSW,209,0.0,0.0,69,0.00,CLR,,0.00,WeatherDisplay:10.37,2013-04-22 05:21:00,
2013-04-22 01:26:00,40.8,31.8,30.62,SSW,209,0.0,0.0,70,0.00,CLR,,0.00,WeatherDisplay:10.37,2013-04-22 05:26:00,
2013-04-22 01:31:00,40.4,31.8,30.63,SSW,209,0.0,0.0,71,0.00,CLR,,0.00,WeatherDisplay:10.37,2013-04-22 05:31:00,
2013-04-22 01:36:00,39.6,29.9,30.63,SSW,209,0.0,0.0,68,0.00,CLR,,0.00,WeatherDisplay:10.37,2013-04-22 05:36:00,
2013-04-22 01:41:00,39.0,28.6,30.63,SSW,209,0.0,0.0,66,0.00,CLR,,0.00,WeatherDisplay:10.37,2013-04-22 05:41:00,
2013-04-22 01:46:00,38.3,28.7,30.63,SSW,209,0.0,0.0,68,0.00,CLR,,0.00,WeatherDisplay:10.37,2013-04-22 05:46:00,
2013-04-22 01:51:00,38.1,28.5,30.63,SSW,209,0.0,0.0,68,0.00,CLR,,0.00,WeatherDisplay:10.37,2013-04-22 05:51:00,
2013-04-22 01:56:00,38.3,28.7,30.63,SSW,209,0.0,0.0,68,0.00,CLR,,0.00,WeatherDisplay:10.37,2013-04-22 05:56:00,
2013-04-22 02:01:00,38.4,29.5,30.63,SSW,209,0.0,0.0,70,0.00,CLR,,0.00,WeatherDisplay:10.37,2013-04-22 06:01:00,
2013-04-22 02:06:00,38.6,29.7,30.63,SSW,209,0.0,0.0,70,0.00,CLR,,0.00,WeatherDisplay:10.37,2013-04-22 06:06:00,
2013-04-22 02:11:00,39.0,30.4,30.63,SSW,209,0.0,0.0,71,0.00,CLR,,0.00,WeatherDisplay:10.37,2013-04-22 06:11:00,
2013-04-22 02:16:00,39.0,30.4,30.63,SSW,209,0.0,0.0,71,0.00,CLR,,0.00,WeatherDisplay:10.37,2013-04-22 06:16:00,
2013-04-22 02:21:00,38.9,30.7,30.63,SSW,209,0.0,0.0,72,0.00,CLR,,0.00,WeatherDisplay:10.37,2013-04-22 06:21:00,
2013-04-22 02:26:00,39.3,31.4,30.63,SSW,209,0.0,0.0,73,0.00,CLR,,0.00,WeatherDisplay:10.37,2013-04-22 06:26:00,
2013-04-22 02:31:00,39.4,31.5,30.63,SSW,209,0.0,0.0,73,0.00,CLR,,0.00,WeatherDisplay:10.37,2013-04-22 06:31:00,
2013-04-22 02:36:00,39.3,31.4,30.63,SSW,209,0.0,0.0,73,0.00,CLR,,0.00,WeatherDisplay:10.37,2013-04-22 06:36:00,
2013-04-22 02:41:00,39.3,31.4,30.63,SSW,209,0.0,0.0,73,0.00,CLR,,0.00,WeatherDisplay:10.37,2013-04-22 06:41:00,
2013-04-22 02:46:00,39.2,31.6,30.63,SSW,209,0.0,0.0,74,0.00,CLR,,0.00,WeatherDisplay:10.37,2013-04-22 06:46:00,
2013-04-22 02:51:00,39.1,31.2,30.63,SSW,209,0.0,0.0,73,0.00,CLR,,0.00,WeatherDisplay:10.37,2013-04-22 06:51:00,
2013-04-22 02:56:00,39.1,31.5,30.63,SSW,209,0.0,0.0,74,0.00,CLR,,0.00,WeatherDisplay:10.37,2013-04-22 06:56:00,
2013-04-22 03:01:00,39.0,31.5,30.63,SSW,209,0.0,0.0,74,0.00,CLR,,0.00,WeatherDisplay:10.37,2013-04-22 07:01:00,
2013-04-22 03:06:00,38.8,31.3,30.63,SSW,209,0.0,0.0,74,0.00,CLR,,0.00,WeatherDisplay:10.37,2013-04-22 07:06:00,
2013-04-22 03:11:00,38.7,31.5,30.63,SSW,209,0.0,0.0,75,0.00,CLR,,0.00,WeatherDisplay:10.37,2013-04-22 07:11:00,
2013-04-22 03:16:00,38.5,31.6,30.63,SSW,209,0.0,0.0,76,0.00,CLR,,0.00,WeatherDisplay:10.37,2013-04-22 07:16:00,
2013-04-22 03:21:00,38.4,31.5,30.63,SSW,209,0.0,0.0,76,0.00,CLR,,0.00,WeatherDisplay:10.37,2013-04-22 07:21:00,
2013-04-22 03:26:00,38.2,31.7,30.63,SSW,209,0.0,0.0,77,0.00,CLR,,0.00,WeatherDisplay:10.37,2013-04-22 07:26:00,
2013-04-22 03:31:00,38.0,31.5,30.64,SSW,209,0.0,0.0,77,0.00,CLR,,0.00,WeatherDisplay:10.37,2013-04-22 07:31:00,
2013-04-22 03:36:00,38.0,31.8,30.64,SSW,209,0.0,0.0,78,0.00,CLR,,0.00,WeatherDisplay:10.37,2013-04-22 07:36:00,
2013-04-22 03:41:00,37.7,31.5,30.64,SSW,209,0.0,0.0,78,0.00,CLR,,0.00,WeatherDisplay:10.37,2013-04-22 07:41:00,
2013-04-22 03:46:00,37.7,31.8,30.64,SSW,209,0.0,0.0,79,0.00,CLR,,0.00,WeatherDisplay:10.37,2013-04-22 07:46:00,
2013-04-22 03:51:00,37.4,31.5,30.64,SSW,209,0.0,0.0,79,0.00,CLR,,0.00,WeatherDisplay:10.37,2013-04-22 07:51:00,
2013-04-22 03:56:00,37.4,31.5,30.64,SSW,209,0.0,0.0,79,0.00,CLR,,0.00,WeatherDisplay:10.37,2013-04-22 07:56:00,
2013-04-22 04:01:00,37.2,31.3,30.64,SSW,209,0.0,0.0,79,0.00,CLR,,0.00,WeatherDisplay:10.37,2013-04-22 08:01:00,
2013-04-22 04:06:00,37.2,31.6,30.64,SSW,209,0.0,0.0,80,0.00,CLR,,0.00,WeatherDisplay:10.37,2013-04-22 08:06:00,
2013-04-22 04:11:00,37.0,31.4,30.64,SSW,209,0.0,0.0,80,0.00,CLR,,0.00,WeatherDisplay:10.37,2013-04-22 08:11:00,
2013-04-22 04:16:00,36.8,31.2,30.64,SSW,209,0.0,0.0,80,0.00,CLR,,0.00,WeatherDisplay:10.37,2013-04-22 08:16:00,
2013-04-22 04:21:00,36.7,31.5,30.64,SSW,209,0.0,0.0,81,0.00,CLR,,0.00,WeatherDisplay:10.37,2013-04-22 08:21:00,
2013-04-22 04:26:00,36.2,31.0,30.64,SSW,209,0.0,0.0,81,0.00,CLR,,0.00,WeatherDisplay:10.37,2013-04-22 08:26:00,
2013-04-22 04:31:00,36.5,31.3,30.65,SSW,209,0.0,0.0,81,0.00,CLR,,0.00,WeatherDisplay:10.37,2013-04-22 08:31:00,
2013-04-22 04:36:00,36.3,31.4,30.65,SSW,209,0.0,0.0,82,0.00,CLR,,0.00,WeatherDisplay:10.37,2013-04-22 08:36:00,
2013-04-22 04:41:00,36.2,31.3,30.65,SSW,209,0.0,0.0,82,0.00,CLR,,0.00,WeatherDisplay:10.37,2013-04-22 08:41:00,
2013-04-22 04:46:00,35.9,31.0,30.65,SSW,209,0.0,0.0,82,0.00,CLR,,0.00,WeatherDisplay:10.37,2013-04-22 08:46:00,
2013-04-22 04:51:00,36.0,31.1,30.65,SSW,209,0.0,0.0,82,0.00,CLR,,0.00,WeatherDisplay:10.37,2013-04-22 08:51:00,
2013-04-22 04:56:00,36.0,31.1,30.65,SSW,209,0.0,0.0,82,0.00,CLR,,0.00,WeatherDisplay:10.37,2013-04-22 08:56:00,
2013-04-22 05:01:00,35.6,31.0,30.65,SSW,209,0.0,0.0,83,0.00,CLR,,0.00,WeatherDisplay:10.37,2013-04-22 09:01:00,
2013-04-22 05:06:00,35.5,30.9,30.65,SSW,209,0.0,0.0,83,0.00,CLR,,0.00,WeatherDisplay:10.37,2013-04-22 09:06:00,
2013-04-22 05:11:00,35.2,30.6,30.65,SSW,209,0.0,0.0,83,0.00,CLR,,0.00,WeatherDisplay:10.37,2013-04-22 09:11:00,
2013-04-22 05:16:00,35.2,30.9,30.65,SSW,209,0.0,0.0,84,0.00,CLR,,0.00,WeatherDisplay:10.37,2013-04-22 09:16:00,
2013-04-22 05:21:00,35.2,30.9,30.65,SSW,209,0.0,0.0,84,0.00,CLR,,0.00,WeatherDisplay:10.37,2013-04-22 09:21:00,
2013-04-22 05:26:00,34.9,30.6,30.66,SSW,209,0.0,0.0,84,0.00,CLR,,0.00,WeatherDisplay:10.37,2013-04-22 09:26:00,
2013-04-22 05:31:00,34.6,30.6,30.66,SSW,209,0.0,0.0,85,0.00,CLR,,0.00,WeatherDisplay:10.37,2013-04-22 09:31:00,
2013-04-22 05:36:00,34.8,30.8,30.66,SSW,209,0.0,0.0,85,0.00,CLR,,0.00,WeatherDisplay:10.37,2013-04-22 09:36:00,
2013-04-22 05:41:00,34.6,30.6,30.66,SSW,209,0.0,0.0,85,0.00,CLR,,0.00,WeatherDisplay:10.37,2013-04-22 09:41:00,
2013-04-22 05:46:00,34.6,30.6,30.66,SSW,209,0.0,0.0,85,0.00,CLR,,0.00,WeatherDisplay:10.37,2013-04-22 09:46:00,
2013-04-22 05:51:00,34.4,30.4,30.66,SSW,209,0.0,0.0,85,0.00,CLR,,0.00,WeatherDisplay:10.37,2013-04-22 09:51:00,
2013-04-22 05:56:00,34.5,30.8,30.66,SSW,209,0.0,0.0,86,0.00,CLR,,0.00,WeatherDisplay:10.37,2013-04-22 09:56:00,
2013-04-22 06:01:00,34.4,30.7,30.66,SSW,209,0.0,0.0,86,0.00,CLR,,0.00,WeatherDisplay:10.37,2013-04-22 10:01:00,
2013-04-22 06:06:00,34.2,30.8,30.67,SSW,209,0.0,0.0,87,0.00,CLR,,0.00,WeatherDisplay:10.37,2013-04-22 10:06:00,
2013-04-22 06:11:00,34.3,30.6,30.66,SSW,209,0.0,0.0,86,0.00,CLR,,0.00,WeatherDisplay:10.37,2013-04-22 10:11:00,
2013-04-22 06:16:00,34.1,30.4,30.67,SSW,209,0.0,0.0,86,0.00,CLR,,0.00,WeatherDisplay:10.37,2013-04-22 10:16:00,
2013-04-22 06:21:00,34.2,30.5,30.67,SSW,209,0.0,0.0,86,0.00,CLR,,0.00,WeatherDisplay:10.37,2013-04-22 10:21:00,
2013-04-22 06:26:00,34.2,30.5,30.67,SSW,209,0.0,0.0,86,0.00,CLR,,0.00,WeatherDisplay:10.37,2013-04-22 10:26:00,
2013-04-22 06:31:00,33.9,30.5,30.67,SSW,209,0.0,0.0,87,0.00,CLR,,0.00,WeatherDisplay:10.37,2013-04-22 10:31:00,
2013-04-22 06:36:00,34.0,30.6,30.67,SSW,209,0.0,0.0,87,0.00,CLR,,0.00,WeatherDisplay:10.37,2013-04-22 10:36:00,
2013-04-22 06:41:00,33.8,30.4,30.67,SSW,209,0.0,0.0,87,0.00,CLR,,0.00,WeatherDisplay:10.37,2013-04-22 10:41:00,
2013-04-22 06:46:00,34.0,30.9,30.67,SSW,209,0.0,0.0,88,0.00,CLR,,0.00,WeatherDisplay:10.37,2013-04-22 10:46:00,
2013-04-22 06:51:00,34.1,31.0,30.67,SSW,209,0.0,0.0,88,0.00,CLR,,0.00,WeatherDisplay:10.37,2013-04-22 10:51:00,
2013-04-22 06:56:00,34.4,31.5,30.67,SSW,209,0.0,0.0,89,0.00,CLR,,0.00,WeatherDisplay:10.37,2013-04-22 10:56:00,
2013-04-22 07:01:00,34.6,32.0,30.67,East,89,4.6,4.6,90,0.00,CLR,,0.00,WeatherDisplay:10.37,2013-04-22 11:01:00,
2013-04-22 07:06:00,34.9,32.3,30.67,East,95,4.6,4.6,90,0.00,CLR,,0.00,WeatherDisplay:10.37,2013-04-22 11:06:00,
2013-04-22 07:11:00,34.8,32.2,30.67,East,93,4.6,4.6,90,0.00,CLR,,0.00,WeatherDisplay:10.37,2013-04-22 11:11:00,
2013-04-22 07:16:00,35.4,32.5,30.67,ESE,106,4.6,4.6,89,0.00,CLR,,0.00,WeatherDisplay:10.37,2013-04-22 11:16:00,
2013-04-22 07:21:00,36.3,33.1,30.67,East,85,4.6,4.6,88,0.00,CLR,,0.00,WeatherDisplay:10.37,2013-04-22 11:21:00,
2013-04-22 07:26:00,37.0,33.2,30.67,East,83,5.8,5.8,86,0.00,CLR,,0.00,WeatherDisplay:10.37,2013-04-22 11:26:00,
2013-04-22 07:31:00,37.9,33.5,30.67,ENE,75,5.8,5.8,84,0.00,CLR,,0.00,WeatherDisplay:10.37,2013-04-22 11:31:00,
2013-04-22 07:36:00,38.7,33.1,30.67,East,83,5.8,5.8,80,0.00,CLR,,0.00,WeatherDisplay:10.37,2013-04-22 11:36:00,
2013-04-22 07:41:00,39.0,32.8,30.66,ENE,68,5.8,5.8,78,0.00,CLR,,0.00,WeatherDisplay:10.37,2013-04-22 11:41:00,
2013-04-22 07:46:00,39.4,32.8,30.66,ESE,104,6.9,6.9,77,0.00,CLR,,0.00,WeatherDisplay:10.37,2013-04-22 11:46:00,
2013-04-22 07:51:00,39.7,32.8,30.66,ESE,106,6.9,6.9,76,0.00,CLR,,0.00,WeatherDisplay:10.37,2013-04-22 11:51:00,
2013-04-22 07:56:00,39.8,31.9,30.66,ENE,75,4.6,4.6,73,0.00,CLR,,0.00,WeatherDisplay:10.37,2013-04-22 11:56:00,
2013-04-22 08:01:00,39.8,32.6,30.66,NE,56,4.6,4.6,75,0.00,CLR,,0.00,WeatherDisplay:10.37,2013-04-22 12:01:00,
2013-04-22 08:06:00,40.0,32.8,30.66,SSE,165,4.2,4.2,75,0.00,CLR,,0.00,WeatherDisplay:10.37,2013-04-22 12:06:00,
2013-04-22 08:11:00,40.4,32.5,30.66,ESE,112,3.5,3.5,73,0.00,CLR,,0.00,WeatherDisplay:10.37,2013-04-22 12:11:00,
2013-04-22 08:16:00,40.9,32.6,30.66,ESE,119,3.5,3.5,72,0.00,CLR,,0.00,WeatherDisplay:10.37,2013-04-22 12:16:00,
2013-04-22 08:22:00,41.6,32.6,30.66,ESE,103,6.9,6.9,70,0.00,CLR,,0.00,WeatherDisplay:10.37,2013-04-22 12:22:00,
2013-04-22 08:27:00,42.2,32.8,30.65,ENE,73,5.8,5.8,69,0.00,CLR,,0.00,WeatherDisplay:10.37,2013-04-22 12:27:00,
2013-04-22 08:32:00,42.4,32.3,30.65,ESE,103,6.9,6.9,67,0.00,CLR,,0.00,WeatherDisplay:10.37,2013-04-22 12:32:00,
2013-04-22 08:37:00,42.9,32.4,30.65,SSE,160,5.8,5.8,66,0.00,CLR,,0.00,WeatherDisplay:10.37,2013-04-22 12:37:00,
2013-04-22 08:42:00,43.8,32.1,30.65,East,95,4.6,4.8,63,0.00,CLR,,0.00,WeatherDisplay:10.37,2013-04-22 12:42:00,
2013-04-22 08:47:00,44.3,30.9,30.65,ESE,116,4.6,4.6,59,0.00,CLR,,0.00,WeatherDisplay:10.37,2013-04-22 12:47:00,
2013-04-22 08:52:00,44.8,30.5,30.65,East,88,8.1,8.1,57,0.00,CLR,,0.00,WeatherDisplay:10.37,2013-04-22 12:52:00,
2013-04-22 08:57:00,44.8,28.3,30.65,ENE,73,9.2,9.3,52,0.00,CLR,,0.00,WeatherDisplay:10.37,2013-04-22 12:57:00,
2013-04-22 09:02:00,45.3,29.2,30.65,East,96,10.4,10.4,53,0.00,CLR,,0.00,WeatherDisplay:10.37,2013-04-22 13:02:00,
2013-04-22 09:07:00,45.6,27.6,30.65,ESE,112,9.2,9.2,49,0.00,CLR,,0.00,WeatherDisplay:10.37,2013-04-22 13:07:00,
2013-04-22 09:12:00,45.6,28.0,30.66,SSE,160,9.2,9.2,50,0.00,CLR,,0.00,WeatherDisplay:10.37,2013-04-22 13:12:00,
2013-04-22 09:17:00,46.0,28.4,30.66,East,99,10.4,10.4,50,0.00,CLR,,0.00,WeatherDisplay:10.37,2013-04-22 13:17:00,
2013-04-22 09:22:00,46.3,27.7,30.66,ESE,117,12.7,12.7,48,0.00,CLR,,0.00,WeatherDisplay:10.37,2013-04-22 13:22:00,
2013-04-22 09:27:00,46.2,28.6,30.66,ENE,78,11.5,11.5,50,0.00,CLR,,0.00,WeatherDisplay:10.37,2013-04-22 13:27:00,
2013-04-22 09:32:00,46.9,27.2,30.66,ENE,58,12.7,12.7,46,0.00,CLR,,0.00,WeatherDisplay:10.37,2013-04-22 13:32:00,
2013-04-22 09:37:00,46.8,26.6,30.67,SE,131,12.7,12.7,45,0.00,CLR,,0.00,WeatherDisplay:10.37,2013-04-22 13:37:00,
2013-04-22 09:42:00,47.8,27.0,30.67,SSE,155,9.3,9.3,44,0.00,CLR,,0.00,WeatherDisplay:10.37,2013-04-22 13:42:00,
2013-04-22 09:47:00,48.0,24.8,30.67,ESE,102,12.7,12.7,40,0.00,CLR,,0.00,WeatherDisplay:10.37,2013-04-22 13:47:00,
2013-04-22 09:52:00,48.2,25.0,30.67,SE,143,10.4,10.4,40,0.00,CLR,,0.00,WeatherDisplay:10.37,2013-04-22 13:52:00,
2013-04-22 09:57:00,48.8,26.2,30.66,SSE,147,8.1,8.1,41,0.00,CLR,,0.00,WeatherDisplay:10.37,2013-04-22 13:57:00,
2013-04-22 10:02:00,48.5,25.3,30.66,East,82,13.8,13.8,40,0.00,CLR,,0.00,WeatherDisplay:10.37,2013-04-22 14:02:00,
2013-04-22 10:07:00,48.7,26.6,30.66,ESE,106,9.2,9.2,42,0.00,CLR,,0.00,WeatherDisplay:10.37,2013-04-22 14:07:00,
2013-04-22 10:12:00,49.7,27.0,30.66,SE,130,11.5,11.5,41,0.00,CLR,,0.00,WeatherDisplay:10.37,2013-04-22 14:12:00,
2013-04-22 10:17:00,49.9,27.1,30.65,SSW,193,5.8,5.8,41,0.00,CLR,,0.00,WeatherDisplay:10.37,2013-04-22 14:17:00,
2013-04-22 10:22:00,49.5,26.2,30.65,East,97,10.4,10.4,40,0.00,CLR,,0.00,WeatherDisplay:10.37,2013-04-22 14:22:00,
2013-04-22 10:27:00,49.8,26.5,30.65,ESE,123,13.8,13.8,40,0.00,CLR,,0.00,WeatherDisplay:10.37,2013-04-22 14:27:00,
2013-04-22 10:32:00,49.4,26.7,30.64,East,96,10.4,10.4,41,0.00,CLR,,0.00,WeatherDisplay:10.37,2013-04-22 14:32:00,
2013-04-22 10:37:00,49.4,26.7,30.64,South,182,10.4,10.4,41,0.00,CLR,,0.00,WeatherDisplay:10.37,2013-04-22 14:37:00,
2013-04-22 10:42:00,49.8,27.1,30.64,East,90,10.4,10.4,41,0.00,CLR,,0.00,WeatherDisplay:10.37,2013-04-22 14:42:00,
2013-04-22 10:47:00,49.1,27.0,30.63,ESE,112,12.7,12.7,42,0.00,CLR,,0.00,WeatherDisplay:10.37,2013-04-22 14:47:00,
2013-04-22 10:52:00,49.5,26.8,30.64,NE,54,9.2,9.2,41,0.00,CLR,,0.00,WeatherDisplay:10.37,2013-04-22 14:52:00,
2013-04-22 10:57:00,50.0,27.2,30.63,ENE,72,9.2,9.2,41,0.00,CLR,,0.00,WeatherDisplay:10.37,2013-04-22 14:57:00,
2013-04-22 11:02:00,50.9,27.4,30.63,ESE,107,6.3,6.3,40,0.00,CLR,,0.00,WeatherDisplay:10.37,2013-04-22 15:02:00,
2013-04-22 11:07:00,50.9,26.8,30.63,ESE,116,9.2,9.2,39,0.00,CLR,,0.00,WeatherDisplay:10.37,2013-04-22 15:07:00,
2013-04-22 11:12:00,51.0,24.3,30.63,ESE,121,9.2,9.2,35,0.00,CLR,,0.00,WeatherDisplay:10.37,2013-04-22 15:12:00,
2013-04-22 11:17:00,50.9,24.2,30.63,SSE,165,10.4,10.4,35,0.00,CLR,,0.00,WeatherDisplay:10.37,2013-04-22 15:17:00,
2013-04-22 11:22:00,51.6,25.5,30.62,SE,137,9.2,9.2,36,0.00,CLR,,0.00,WeatherDisplay:10.37,2013-04-22 15:22:00,
2013-04-22 11:27:00,51.6,26.8,30.62,East,100,8.1,8.1,38,0.00,CLR,,0.00,WeatherDisplay:10.37,2013-04-22 15:27:00,
2013-04-22 11:32:00,51.7,25.6,30.62,East,86,9.2,9.2,36,0.00,CLR,,0.00,WeatherDisplay:10.37,2013-04-22 15:32:00,
2013-04-22 11:37:00,52.1,26.0,30.61,ESE,123,4.6,4.6,36,0.00,CLR,,0.00,WeatherDisplay:10.37,2013-04-22 15:37:00,
2013-04-22 11:42:00,52.7,25.1,30.61,East,85,15.0,15.0,34,0.00,CLR,,0.00,WeatherDisplay:10.37,2013-04-22 15:42:00,
2013-04-22 11:47:00,52.8,25.9,30.61,ENE,71,10.1,10.1,35,0.00,CLR,,0.00,WeatherDisplay:10.37,2013-04-22 15:47:00,
2013-04-22 11:52:00,52.6,25.7,30.61,ENE,78,10.4,10.4,35,0.00,CLR,,0.00,WeatherDisplay:10.37,2013-04-22 15:52:00,
2013-04-22 11:57:00,52.9,26.0,30.61,ESE,119,8.1,8.1,35,0.00,CLR,,0.00,WeatherDisplay:10.37,2013-04-22 15:57:00,
2013-04-22 12:02:00,52.2,24.7,30.61,ESE,114,10.4,10.4,34,0.00,CLR,,0.00,WeatherDisplay:10.37,2013-04-22 16:02:00,
2013-04-22 12:07:00,52.9,26.0,30.61,SE,144,9.5,9.5,35,0.00,CLR,,0.00,WeatherDisplay:10.37,2013-04-22 16:07:00,
2013-04-22 12:12:00,53.0,25.4,30.61,ESE,107,10.4,10.4,34,0.00,CLR,,0.00,WeatherDisplay:10.37,2013-04-22 16:12:00,
2013-04-22 12:17:00,52.9,24.6,30.61,SE,126,12.7,12.7,33,0.00,CLR,,0.00,WeatherDisplay:10.37,2013-04-22 16:17:00,
2013-04-22 12:22:00,52.6,25.0,30.61,ESE,113,9.2,9.2,34,0.00,CLR,,0.00,WeatherDisplay:10.37,2013-04-22 16:22:00,
2013-04-22 12:27:00,52.9,26.0,30.61,East,99,8.1,8.1,35,0.00,CLR,,0.00,WeatherDisplay:10.37,2013-04-22 16:27:00,
2013-04-22 12:32:00,52.9,25.3,30.61,ESE,114,12.7,12.7,34,0.00,CLR,,0.00,WeatherDisplay:10.37,2013-04-22 16:32:00,
2013-04-22 12:37:00,52.9,23.8,30.60,SE,140,9.2,9.2,32,0.00,CLR,,0.00,WeatherDisplay:10.37,2013-04-22 16:37:00,
2013-04-22 12:43:00,53.2,25.6,30.60,East,88,8.1,8.1,34,0.00,CLR,,0.00,WeatherDisplay:10.37,2013-04-22 16:43:00,
2013-04-22 12:48:00,53.7,26.7,30.59,NE,47,4.9,4.9,35,0.00,CLR,,0.00,WeatherDisplay:10.37,2013-04-22 16:48:00,
2013-04-22 12:53:00,53.8,25.4,30.58,SE,145,13.8,13.8,33,0.00,CLR,,0.00,WeatherDisplay:10.37,2013-04-22 16:53:00,
2013-04-22 12:58:00,53.2,24.1,30.58,ESE,106,10.4,10.4,32,0.00,CLR,,0.00,WeatherDisplay:10.37,2013-04-22 16:58:00,
2013-04-22 13:03:00,53.3,27.0,30.58,SE,134,8.1,8.1,36,0.00,CLR,,0.00,WeatherDisplay:10.37,2013-04-22 17:03:00,
2013-04-22 13:08:00,53.6,25.9,30.58,SSE,151,5.0,5.0,34,0.00,CLR,,0.00,WeatherDisplay:10.37,2013-04-22 17:08:00,
2013-04-22 13:13:00,54.4,26.6,30.59,ESE,103,5.8,7.4,34,0.00,CLR,,0.00,WeatherDisplay:10.37,2013-04-22 17:13:00,
2013-04-22 13:18:00,54.5,26.7,30.59,ESE,121,8.1,8.1,34,0.00,CLR,,0.00,WeatherDisplay:10.37,2013-04-22 17:18:00,
2013-04-22 13:23:00,54.7,25.4,30.58,East,80,15.0,15.0,32,0.00,CLR,,0.00,WeatherDisplay:10.37,2013-04-22 17:23:00,
2013-04-22 13:28:00,54.3,26.5,30.58,ENE,75,12.7,12.7,34,0.00,CLR,,0.00,WeatherDisplay:10.37,2013-04-22 17:28:00,
2013-04-22 13:33:00,54.2,25.0,30.57,East,100,4.6,4.6,32,0.00,CLR,,0.00,WeatherDisplay:10.37,2013-04-22 17:33:00,
2013-04-22 13:38:00,54.0,27.0,30.58,SE,131,9.2,9.2,35,0.00,CLR,,0.00,WeatherDisplay:10.37,2013-04-22 17:38:00,
2013-04-22 13:43:00,54.0,26.3,30.58,ESE,110,9.2,9.2,34,0.00,CLR,,0.00,WeatherDisplay:10.37,2013-04-22 17:43:00,
2013-04-22 13:48:00,53.9,26.9,30.57,ESE,107,9.2,9.2,35,0.00,CLR,,0.00,WeatherDisplay:10.37,2013-04-22 17:48:00,
2013-04-22 13:53:00,54.0,28.3,30.57,East,100,4.6,4.6,37,0.00,CLR,,0.00,WeatherDisplay:10.37,2013-04-22 17:53:00,
2013-04-22 13:59:00,54.4,27.3,30.57,East,96,8.1,8.1,35,0.00,CLR,,0.00,WeatherDisplay:10.37,2013-04-22 17:59:00,
2013-04-22 14:04:00,55.2,28.0,30.56,ENE,73,6.9,6.9,35,0.00,CLR,,0.00,WeatherDisplay:10.37,2013-04-22 18:04:00,
2013-04-22 14:09:00,55.9,27.9,30.56,SSE,162,8.1,8.1,34,0.00,CLR,,0.00,WeatherDisplay:10.37,2013-04-22 18:09:00,
2013-04-22 14:14:00,56.1,26.6,30.55,East,86,8.1,8.1,32,0.00,CLR,,0.00,WeatherDisplay:10.37,2013-04-22 18:14:00,
2013-04-22 14:19:00,55.9,27.9,30.55,SSE,161,6.9,6.9,34,0.00,CLR,,0.00,WeatherDisplay:10.37,2013-04-22 18:19:00,
2013-04-22 14:24:00,56.0,27.3,30.55,SE,144,8.1,8.1,33,0.00,CLR,,0.00,WeatherDisplay:10.37,2013-04-22 18:24:00,
2013-04-22 14:29:00,55.9,26.5,30.54,East,82,16.1,16.1,32,0.00,CLR,,0.00,WeatherDisplay:10.37,2013-04-22 18:29:00,
2013-04-22 14:34:00,55.6,27.0,30.54,East,85,6.9,6.9,33,0.00,CLR,,0.00,WeatherDisplay:10.37,2013-04-22 18:34:00,
2013-04-22 14:39:00,55.6,27.7,30.53,East,86,11.5,11.5,34,0.00,CLR,,0.00,WeatherDisplay:10.37,2013-04-22 18:39:00,
2013-04-22 14:44:00,55.8,27.9,30.53,ESE,123,8.1,8.1,34,0.00,CLR,,0.00,WeatherDisplay:10.37,2013-04-22 18:44:00,
2013-04-22 14:49:00,55.9,27.9,30.53,East,86,4.6,4.6,34,0.00,CLR,,0.00,WeatherDisplay:10.37,2013-04-22 18:49:00,
2013-04-22 14:54:00,56.2,30.3,30.53,ENE,78,9.2,9.2,37,0.00,CLR,,0.00,WeatherDisplay:10.37,2013-04-22 18:54:00,
2013-04-22 14:59:00,56.4,29.1,30.52,East,86,8.1,8.1,35,0.00,CLR,,0.00,WeatherDisplay:10.37,2013-04-22 18:59:00,
2013-04-22 15:04:00,56.6,31.9,30.53,SE,131,5.8,5.8,39,0.00,CLR,,0.00,WeatherDisplay:10.37,2013-04-22 19:04:00,
2013-04-22 15:09:00,56.7,33.9,30.52,SE,136,8.1,8.1,42,0.00,CLR,,0.00,WeatherDisplay:10.37,2013-04-22 19:09:00,
2013-04-22 15:14:00,56.2,31.6,30.52,SSE,150,9.2,9.2,39,0.00,CLR,,0.00,WeatherDisplay:10.37,2013-04-22 19:14:00,
2013-04-22 15:19:00,56.2,32.8,30.52,SW,216,10.4,10.4,41,0.00,CLR,,0.00,WeatherDisplay:10.37,2013-04-22 19:19:00,
2013-04-22 15:24:00,55.9,31.9,30.52,ESE,104,8.1,8.1,40,0.00,CLR,,0.00,WeatherDisplay:10.37,2013-04-22 19:24:00,
2013-04-22 15:29:00,56.0,33.2,30.52,SSE,164,5.2,5.2,42,0.00,CLR,,0.00,WeatherDisplay:10.37,2013-04-22 19:29:00,
2013-04-22 15:34:00,55.9,31.3,30.52,SSE,158,5.8,5.8,39,0.00,CLR,,0.00,WeatherDisplay:10.37,2013-04-22 19:34:00,
2013-04-22 15:39:00,56.1,30.9,30.51,SE,136,8.1,8.1,38,0.00,CLR,,0.00,WeatherDisplay:10.37,2013-04-22 19:39:00,
2013-04-22 15:44:00,55.7,31.1,30.51,SSE,150,9.2,9.2,39,0.00,CLR,,0.00,WeatherDisplay:10.37,2013-04-22 19:44:00,
2013-04-22 15:49:00,55.3,31.4,30.51,ESE,123,6.9,6.9,40,0.00,CLR,,0.00,WeatherDisplay:10.37,2013-04-22 19:49:00,
2013-04-22 15:54:00,55.2,31.3,30.51,SSE,160,11.5,11.5,40,0.00,CLR,,0.00,WeatherDisplay:10.37,2013-04-22 19:54:00,
2013-04-22 15:59:00,55.2,32.5,30.51,SSE,155,6.9,6.9,42,0.00,CLR,,0.00,WeatherDisplay:10.37,2013-04-22 19:59:00,
2013-04-22 16:04:00,55.6,32.3,30.51,SE,144,8.1,8.1,41,0.00,CLR,,0.00,WeatherDisplay:10.37,2013-04-22 20:04:00,
2013-04-22 16:09:00,55.9,32.6,30.51,SSE,155,10.4,10.4,41,0.00,CLR,,0.00,WeatherDisplay:10.37,2013-04-22 20:09:00,
2013-04-22 16:14:00,56.0,33.2,30.50,SSE,150,6.9,6.9,42,0.00,CLR,,0.00,WeatherDisplay:10.37,2013-04-22 20:14:00,
2013-04-22 16:19:00,55.7,34.7,30.50,South,191,9.2,9.2,45,0.00,CLR,,0.00,WeatherDisplay:10.37,2013-04-22 20:19:00,
2013-04-22 16:24:00,55.0,33.5,30.50,South,181,9.2,9.2,44,0.00,CLR,,0.00,WeatherDisplay:10.37,2013-04-22 20:24:00,
2013-04-22 16:29:00,54.7,34.3,30.50,South,171,9.2,9.2,46,0.00,CLR,,0.00,WeatherDisplay:10.37,2013-04-22 20:29:00,
2013-04-22 16:34:00,54.3,34.0,30.50,ESE,117,6.9,6.9,46,0.00,CLR,,0.00,WeatherDisplay:10.37,2013-04-22 20:34:00,
2013-04-22 16:39:00,54.0,33.7,30.50,WSW,239,10.4,10.4,46,0.00,CLR,,0.00,WeatherDisplay:10.37,2013-04-22 20:39:00,
2013-04-22 16:44:00,54.0,34.8,30.50,South,189,10.4,10.4,48,0.00,CLR,,0.00,WeatherDisplay:10.37,2013-04-22 20:44:00,
2013-04-22 16:49:00,54.0,33.7,30.50,SE,127,8.1,8.1,46,0.00,CLR,,0.00,WeatherDisplay:10.37,2013-04-22 20:49:00,
2013-04-22 16:54:00,53.3,34.1,30.50,SSE,155,8.1,8.1,48,0.00,CLR,,0.00,WeatherDisplay:10.37,2013-04-22 20:54:00,
2013-04-22 16:59:00,53.0,33.9,30.50,South,169,10.4,10.4,48,0.00,CLR,,0.00,WeatherDisplay:10.37,2013-04-22 20:59:00,
2013-04-22 17:04:00,53.3,34.6,30.49,SE,133,6.9,6.9,49,0.00,CLR,,0.00,WeatherDisplay:10.37,2013-04-22 21:04:00,
2013-04-22 17:09:00,53.2,34.0,30.50,SSW,212,5.8,5.8,48,0.00,CLR,,0.00,WeatherDisplay:10.37,2013-04-22 21:09:00,
2013-04-22 17:14:00,53.4,34.2,30.49,South,178,9.2,9.2,48,0.00,CLR,,0.00,WeatherDisplay:10.37,2013-04-22 21:14:00,
2013-04-22 17:19:00,53.6,34.4,30.49,SSE,160,8.1,8.1,48,0.00,CLR,,0.00,WeatherDisplay:10.37,2013-04-22 21:19:00,
2013-04-22 17:24:00,53.0,33.9,30.49,ESE,113,8.1,8.1,48,0.00,CLR,,0.00,WeatherDisplay:10.37,2013-04-22 21:24:00,
2013-04-22 17:29:00,52.8,34.2,30.49,SW,217,8.1,8.1,49,0.00,CLR,,0.00,WeatherDisplay:10.37,2013-04-22 21:29:00,
2013-04-22 17:34:00,52.3,33.2,30.49,West,271,10.4,10.4,48,0.00,CLR,,0.00,WeatherDisplay:10.37,2013-04-22 21:34:00,
2013-04-22 17:39:00,52.1,33.0,30.49,SE,140,6.9,6.9,48,0.00,CLR,,0.00,WeatherDisplay:10.37,2013-04-22 21:39:00,
2013-04-22 17:44:00,52.2,33.6,30.49,South,186,11.5,11.5,49,0.00,CLR,,0.00,WeatherDisplay:10.37,2013-04-22 21:44:00,
2013-04-22 17:49:00,51.9,32.3,30.49,South,179,12.7,12.7,47,0.00,CLR,,0.00,WeatherDisplay:10.37,2013-04-22 21:49:00,
2013-04-22 17:54:00,51.6,32.0,30.49,SE,134,11.5,11.5,47,0.00,CLR,,0.00,WeatherDisplay:10.37,2013-04-22 21:54:00,
2013-04-22 17:59:00,51.6,32.6,30.49,ENE,78,5.8,5.8,48,0.00,CLR,,0.00,WeatherDisplay:10.37,2013-04-22 21:59:00,
2013-04-22 18:04:00,51.1,32.1,30.49,SE,140,12.7,12.7,48,0.00,CLR,,0.00,WeatherDisplay:10.37,2013-04-22 22:04:00,
2013-04-22 18:09:00,50.7,32.3,30.49,SSE,160,6.9,6.9,49,0.00,CLR,,0.00,WeatherDisplay:10.37,2013-04-22 22:09:00,
2013-04-22 18:14:00,50.2,32.3,30.49,SE,141,9.2,9.2,50,0.00,CLR,,0.00,WeatherDisplay:10.37,2013-04-22 22:14:00,
2013-04-22 18:19:00,49.9,32.0,30.49,SE,133,8.1,8.1,50,0.00,CLR,,0.00,WeatherDisplay:10.37,2013-04-22 22:19:00,
2013-04-22 18:24:00,49.9,32.0,30.50,SE,130,6.9,6.9,50,0.00,CLR,,0.00,WeatherDisplay:10.37,2013-04-22 22:24:00,
2013-04-22 18:29:00,49.7,32.8,30.50,West,278,11.5,11.5,52,0.00,CLR,,0.00,WeatherDisplay:10.37,2013-04-22 22:29:00,
2013-04-22 18:34:00,49.5,32.6,30.50,SSE,162,8.1,8.1,52,0.00,CLR,,0.00,WeatherDisplay:10.37,2013-04-22 22:34:00,
2013-04-22 18:39:00,49.1,32.7,30.50,SSE,165,5.8,5.8,53,0.00,CLR,,0.00,WeatherDisplay:10.37,2013-04-22 22:39:00,
2013-04-22 18:44:00,48.6,32.7,30.50,SE,133,10.4,10.4,54,0.00,CLR,,0.00,WeatherDisplay:10.37,2013-04-22 22:44:00,
2013-04-22 18:49:00,48.4,32.5,30.50,South,169,9.2,9.2,54,0.00,CLR,,0.00,WeatherDisplay:10.37,2013-04-22 22:49:00,
2013-04-22 18:54:00,48.1,33.2,30.50,SE,145,6.9,6.9,56,0.00,CLR,,0.00,WeatherDisplay:10.37,2013-04-22 22:54:00,
2013-04-22 18:59:00,47.8,33.3,30.50,South,178,11.5,11.5,57,0.00,CLR,,0.00,WeatherDisplay:10.37,2013-04-22 22:59:00,
2013-04-22 19:04:00,47.6,33.6,30.50,SSE,151,9.2,9.2,58,0.00,CLR,,0.00,WeatherDisplay:10.37,2013-04-22 23:04:00,
2013-04-22 19:09:00,47.3,34.1,30.50,SSE,155,8.1,8.1,60,0.00,CLR,,0.00,WeatherDisplay:10.37,2013-04-22 23:09:00,
2013-04-22 19:14:00,47.2,34.5,30.50,SSE,168,6.5,6.5,61,0.00,CLR,,0.00,WeatherDisplay:10.37,2013-04-22 23:14:00,
2013-04-22 19:19:00,46.9,34.6,30.50,SW,215,8.1,8.1,62,0.00,CLR,,0.00,WeatherDisplay:10.37,2013-04-22 23:19:00,
2013-04-22 19:24:00,46.5,35.0,30.50,ESE,123,6.9,6.9,64,0.00,CLR,,0.00,WeatherDisplay:10.37,2013-04-22 23:24:00,
2013-04-22 19:29:00,46.4,35.3,30.50,South,174,6.2,6.2,65,0.00,CLR,,0.00,WeatherDisplay:10.37,2013-04-22 23:29:00,
2013-04-22 19:34:00,46.3,36.0,30.50,South,188,9.2,9.2,67,0.00,CLR,,0.00,WeatherDisplay:10.37,2013-04-22 23:34:00,
2013-04-22 19:39:00,46.1,36.2,30.50,South,169,6.9,6.9,68,0.00,CLR,,0.00,WeatherDisplay:10.37,2013-04-22 23:39:00,
2013-04-22 19:44:00,45.7,36.5,30.50,SSW,208,8.1,8.1,70,0.00,CLR,,0.00,WeatherDisplay:10.37,2013-04-22 23:44:00,
2013-04-22 19:49:00,45.6,36.4,30.51,South,191,1.2,1.2,70,0.00,CLR,,0.00,WeatherDisplay:10.37,2013-04-22 23:49:00,
2013-04-22 19:54:00,45.5,36.7,30.51,SE,140,2.3,0.0,71,0.00,CLR,,0.00,WeatherDisplay:10.37,2013-04-22 23:54:00,
2013-04-22 19:59:00,45.4,36.9,30.51,SE,143,2.3,2.3,72,0.00,CLR,,0.00,WeatherDisplay:10.37,2013-04-22 23:59:00,
2013-04-22 20:04:00,45.1,37.0,30.51,SSW,208,4.6,4.6,73,0.00,CLR,,0.00,WeatherDisplay:10.37,2013-04-23 00:04:00,
2013-04-22 20:09:00,44.9,37.2,30.51,SSE,158,4.6,4.6,74,0.00,CLR,,0.00,WeatherDisplay:10.37,2013-04-23 00:09:00,
2013-04-22 20:14:00,44.7,37.0,30.51,South,178,2.3,2.3,74,0.00,CLR,,0.00,WeatherDisplay:10.37,2013-04-23 00:14:00,
2013-04-22 20:19:00,44.5,37.1,30.51,South,179,6.9,6.9,75,0.00,CLR,,0.00,WeatherDisplay:10.37,2013-04-23 00:19:00,
2013-04-22 20:24:00,44.5,37.1,30.51,South,182,4.6,4.6,75,0.00,CLR,,0.00,WeatherDisplay:10.37,2013-04-23 00:24:00,
2013-04-22 20:29:00,44.4,37.3,30.51,SSE,162,5.8,5.8,76,0.00,CLR,,0.00,WeatherDisplay:10.37,2013-04-23 00:29:00,
2013-04-22 20:34:00,44.2,37.5,30.52,SSE,164,4.6,4.6,77,0.00,CLR,,0.00,WeatherDisplay:10.37,2013-04-23 00:34:00,
2013-04-22 20:39:00,44.2,37.5,30.52,SE,140,7.0,7.0,77,0.00,CLR,,0.00,WeatherDisplay:10.37,2013-04-23 00:39:00,
2013-04-22 20:44:00,44.2,37.5,30.52,ESE,123,4.6,4.6,77,0.00,CLR,,0.00,WeatherDisplay:10.37,2013-04-23 00:44:00,
2013-04-22 20:49:00,43.9,37.2,30.52,SE,138,3.5,3.5,77,0.00,CLR,,0.00,WeatherDisplay:10.37,2013-04-23 00:49:00,
2013-04-22 20:54:00,43.9,37.2,30.52,SE,145,5.8,5.8,77,0.00,CLR,,0.00,WeatherDisplay:10.37,2013-04-23 00:54:00,
2013-04-22 20:59:00,43.9,37.2,30.52,East,83,4.6,4.6,77,0.00,CLR,,0.00,WeatherDisplay:10.37,2013-04-23 00:59:00,
2013-04-22 21:04:00,43.8,37.1,30.52,SE,124,2.3,2.3,77,0.00,CLR,,0.00,WeatherDisplay:10.37,2013-04-23 01:04:00,
2013-04-22 21:09:00,43.6,36.9,30.52,South,179,9.2,9.2,77,0.00,CLR,,0.00,WeatherDisplay:10.37,2013-04-23 01:09:00,
2013-04-22 21:14:00,43.4,36.7,30.52,SE,127,6.9,6.9,77,0.00,CLR,,0.00,WeatherDisplay:10.37,2013-04-23 01:14:00,
2013-04-22 21:19:00,43.6,36.9,30.52,ESE,103,6.9,6.9,77,0.00,CLR,,0.00,WeatherDisplay:10.37,2013-04-23 01:19:00,
2013-04-22 21:24:00,43.3,36.9,30.52,ESE,117,6.9,6.9,78,0.00,CLR,,0.00,WeatherDisplay:10.37,2013-04-23 01:24:00,
2013-04-22 21:29:00,43.0,36.6,30.52,ESE,117,8.1,8.1,78,0.00,CLR,,0.00,WeatherDisplay:10.37,2013-04-23 01:29:00,
2013-04-22 21:34:00,43.0,36.6,30.52,ESE,123,4.6,5.4,78,0.00,CLR,,0.00,WeatherDisplay:10.37,2013-04-23 01:34:00,
2013-04-22 21:39:00,42.9,36.6,30.52,ESE,110,4.6,4.6,78,0.00,CLR,,0.00,WeatherDisplay:10.37,2013-04-23 01:39:00,
2013-04-22 21:44:00,42.9,36.6,30.52,SSE,152,3.5,3.5,78,0.00,CLR,,0.00,WeatherDisplay:10.37,2013-04-23 01:44:00,
2013-04-22 21:49:00,42.7,36.7,30.52,ESE,123,3.5,3.6,79,0.00,CLR,,0.00,WeatherDisplay:10.37,2013-04-23 01:49:00,
2013-04-22 21:54:00,42.7,36.7,30.52,East,96,6.9,6.9,79,0.00,CLR,,0.00,WeatherDisplay:10.37,2013-04-23 01:54:00,
2013-04-22 21:59:00,42.5,36.5,30.52,ESE,117,0.0,0.0,79,0.00,CLR,,0.00,WeatherDisplay:10.37,2013-04-23 01:59:00,
2013-04-22 22:04:00,42.4,36.7,30.51,ESE,121,6.9,6.9,80,0.00,CLR,,0.00,WeatherDisplay:10.37,2013-04-23 02:04:00,
2013-04-22 22:09:00,42.3,36.6,30.51,ESE,110,3.5,0.0,80,0.00,CLR,,0.00,WeatherDisplay:10.37,2013-04-23 02:09:00,
2013-04-22 22:14:00,42.2,36.5,30.51,ESE,117,3.5,3.5,80,0.00,CLR,,0.00,WeatherDisplay:10.37,2013-04-23 02:14:00,
2013-04-22 22:19:00,42.1,36.4,30.51,ESE,113,4.6,4.6,80,0.00,CLR,,0.00,WeatherDisplay:10.37,2013-04-23 02:19:00,
2013-04-22 22:24:00,42.0,36.3,30.52,SE,141,0.0,0.0,80,0.00,CLR,,0.00,WeatherDisplay:10.37,2013-04-23 02:24:00,
2013-04-22 22:29:00,41.9,36.5,30.51,SE,141,0.0,0.0,81,0.00,CLR,,0.00,WeatherDisplay:10.37,2013-04-23 02:29:00,
2013-04-22 22:34:00,41.9,36.5,30.52,ESE,117,3.5,3.5,81,0.00,CLR,,0.00,WeatherDisplay:10.37,2013-04-23 02:34:00,
2013-04-22 22:39:00,41.7,36.3,30.51,SE,130,4.6,4.6,81,0.00,CLR,,0.00,WeatherDisplay:10.37,2013-04-23 02:39:00,
2013-04-22 22:44:00,41.6,36.6,30.51,SE,136,2.9,2.9,82,0.00,CLR,,0.00,WeatherDisplay:10.37,2013-04-23 02:44:00,
2013-04-22 22:49:00,41.7,36.6,30.51,ESE,110,2.3,2.3,82,0.00,CLR,,0.00,WeatherDisplay:10.37,2013-04-23 02:49:00,
2013-04-22 22:54:00,41.3,36.3,30.51,ESE,117,2.3,2.3,82,0.00,CLR,,0.00,WeatherDisplay:10.37,2013-04-23 02:54:00,
2013-04-22 22:59:00,41.4,36.4,30.51,ESE,107,3.5,3.5,82,0.00,CLR,,0.00,WeatherDisplay:10.37,2013-04-23 02:59:00,
2013-04-22 23:04:00,41.1,36.1,30.51,ESE,121,3.5,3.5,82,0.00,CLR,,0.00,WeatherDisplay:10.37,2013-04-23 03:04:00,
2013-04-22 23:09:00,41.2,36.2,30.51,SE,124,2.3,2.3,82,0.00,CLR,,0.00,WeatherDisplay:10.37,2013-04-23 03:09:00,
2013-04-22 23:14:00,41.1,36.1,30.51,ESE,123,4.6,4.6,82,0.00,CLR,,0.00,WeatherDisplay:10.37,2013-04-23 03:14:00,
2013-04-22 23:19:00,41.0,36.3,30.51,ESE,117,3.5,3.5,83,0.00,CLR,,0.00,WeatherDisplay:10.37,2013-04-23 03:19:00,
2013-04-22 23:24:00,40.9,35.9,30.51,SE,128,3.5,3.5,82,0.00,CLR,,0.00,WeatherDisplay:10.37,2013-04-23 03:24:00,
2013-04-22 23:29:00,41.2,36.2,30.52,SE,130,3.5,3.5,82,0.00,CLR,,0.00,WeatherDisplay:10.37,2013-04-23 03:29:00,
2013-04-22 23:34:00,41.1,36.1,30.52,SE,128,2.3,2.3,82,0.00,CLR,,0.00,WeatherDisplay:10.37,2013-04-23 03:34:00,
2013-04-22 23:39:00,41.4,36.7,30.52,SE,130,4.6,4.6,83,0.00,CLR,,0.00,WeatherDisplay:10.37,2013-04-23 03:39:00,
2013-04-22 23:44:00,41.2,36.5,30.52,ESE,119,3.5,3.5,83,0.00,CLR,,0.00,WeatherDisplay:10.37,2013-04-23 03:44:00,
2013-04-22 23:49:00,41.1,36.1,30.52,ESE,107,3.5,3.5,82,0.00,CLR,,0.00,WeatherDisplay:10.37,2013-04-23 03:49:00,
2013-04-22 23:54:00,41.0,35.7,30.52,SE,126,3.9,3.9,81,0.00,CLR,,0.00,WeatherDisplay:10.37,2013-04-23 03:54:00,
2013-04-22 23:59:00,41.1,35.1,30.52,SE,136,6.9,6.9,79,0.00,CLR,,0.00,WeatherDisplay:10.37,2013-04-23 03:59:00,